Terug naar catalogus

ARIANE 1 DEB

LostHEO
NORAD 25824·DEBRIS·🇫🇷 France

Gelanceerd Mar 5, 1984 vanaf Guiana Space Centre

Loading…

Volgende Passages (komende 24 uur)

TLE

VerouderdSource: Space-Track

Epoch: Feb 25, 2026, 07:58 UTC

1 25824U 84023F   26056.33238400 -.00000153  00000-0 -24054-2 0  9998
2 25824   8.2971  42.5449 6792781 156.3785 193.5279  2.56688552251868

Volg ARIANE 1 DEB in realtime met AllMySat

Download on the App Store